Year,Month,Day,Hour,Minute,Value (Times are PST for temperature in C)
2008,04,07,00,00,7.20
2008,04,07,00,01,7.20
2008,04,07,00,02,7.20
2008,04,07,00,03,7.20
2008,04,07,00,04,7.20
2008,04,07,00,05,7.20
2008,04,07,00,06,7.20
2008,04,07,00,07,7.20
2008,04,07,00,08,7.20
2008,04,07,00,09,7.20
2008,04,07,00,10,7.20
2008,04,07,00,11,7.20
2008,04,07,00,12,7.20
2008,04,07,00,13,7.20
2008,04,07,00,14,7.20
2008,04,07,00,15,7.20
2008,04,07,00,16,7.20
2008,04,07,00,17,7.20
2008,04,07,00,18,7.20
2008,04,07,00,19,7.20
2008,04,07,00,20,7.20
2008,04,07,00,21,7.20
2008,04,07,00,22,7.20
2008,04,07,00,23,7.20
2008,04,07,00,24,7.20
2008,04,07,00,25,7.20
2008,04,07,00,26,7.20
2008,04,07,00,27,7.20
2008,04,07,00,28,7.20
2008,04,07,00,29,7.10
2008,04,07,00,30,7.10
2008,04,07,00,31,7.10
2008,04,07,00,32,7.10
2008,04,07,00,33,7.10
2008,04,07,00,34,7.10
2008,04,07,00,35,7.10
2008,04,07,00,36,7.10
2008,04,07,00,37,7.10
2008,04,07,00,38,7.10
2008,04,07,00,39,7.00
2008,04,07,00,40,7.00
2008,04,07,00,41,7.00
2008,04,07,00,42,7.00
2008,04,07,00,43,7.00
2008,04,07,00,44,7.00
2008,04,07,00,45,7.00
2008,04,07,00,46,7.00
2008,04,07,00,47,6.90
2008,04,07,00,48,6.90
2008,04,07,00,49,6.90
2008,04,07,00,50,6.90
2008,04,07,00,51,6.90
2008,04,07,00,52,6.90
2008,04,07,00,53,6.90
2008,04,07,00,54,6.90
2008,04,07,00,55,6.80
2008,04,07,00,56,6.80
2008,04,07,00,57,6.80
2008,04,07,00,58,6.80
2008,04,07,00,59,6.80
2008,04,07,01,00,6.80
2008,04,07,01,01,6.80
2008,04,07,01,02,6.70
2008,04,07,01,03,6.70
2008,04,07,01,04,6.70
2008,04,07,01,05,6.70
2008,04,07,01,06,6.70
2008,04,07,01,07,6.60
2008,04,07,01,08,6.60
2008,04,07,01,09,6.60
2008,04,07,01,10,6.60
2008,04,07,01,11,6.60
2008,04,07,01,12,6.50
2008,04,07,01,13,6.50
2008,04,07,01,14,6.50
2008,04,07,01,15,6.50
2008,04,07,01,16,6.50
2008,04,07,01,17,6.40
2008,04,07,01,18,6.40
2008,04,07,01,19,6.40
2008,04,07,01,20,6.40
2008,04,07,01,21,6.40
2008,04,07,01,22,6.40
2008,04,07,01,23,6.40
2008,04,07,01,24,6.30
2008,04,07,01,25,6.30
2008,04,07,01,26,6.30
2008,04,07,01,27,6.30
2008,04,07,01,28,6.30
2008,04,07,01,29,6.30
2008,04,07,01,30,6.30
2008,04,07,01,31,6.20
2008,04,07,01,32,6.20
2008,04,07,01,33,6.20
2008,04,07,01,34,6.20
2008,04,07,01,35,6.20
2008,04,07,01,36,6.20
2008,04,07,01,37,6.20
2008,04,07,01,38,6.20
2008,04,07,01,39,6.20
2008,04,07,01,40,6.20
2008,04,07,01,41,6.20
2008,04,07,01,42,6.20
2008,04,07,01,43,6.20
2008,04,07,01,44,6.20
2008,04,07,01,45,6.20
2008,04,07,01,46,6.20
2008,04,07,01,47,6.20
2008,04,07,01,48,6.20
2008,04,07,01,49,6.20
2008,04,07,01,50,6.20
2008,04,07,01,51,6.20
2008,04,07,01,52,6.20
2008,04,07,01,53,6.20
2008,04,07,01,54,6.10
2008,04,07,01,55,6.10
2008,04,07,01,56,6.10
2008,04,07,01,57,6.10
2008,04,07,01,58,6.10
2008,04,07,01,59,6.10
2008,04,07,02,00,6.10
2008,04,07,02,01,6.10
2008,04,07,02,02,6.10
2008,04,07,02,03,6.10
2008,04,07,02,04,6.10
2008,04,07,02,05,6.10
2008,04,07,02,06,6.10
2008,04,07,02,07,6.10
2008,04,07,02,08,6.20
2008,04,07,02,09,6.20
2008,04,07,02,10,6.20
2008,04,07,02,11,6.20
2008,04,07,02,12,6.20
2008,04,07,02,13,6.20
2008,04,07,02,14,6.20
2008,04,07,02,15,6.20
2008,04,07,02,16,6.20
2008,04,07,02,17,6.20
2008,04,07,02,18,6.20
2008,04,07,02,19,6.20
2008,04,07,02,20,6.20
2008,04,07,02,21,6.20
2008,04,07,02,22,6.20
2008,04,07,02,23,6.20
2008,04,07,02,24,6.20
2008,04,07,02,25,6.20
2008,04,07,02,26,6.20
2008,04,07,02,27,6.20
2008,04,07,02,28,6.20
2008,04,07,02,29,6.10
2008,04,07,02,30,6.10
2008,04,07,02,31,6.10
2008,04,07,02,32,6.10
2008,04,07,02,33,6.10
2008,04,07,02,34,6.10
2008,04,07,02,35,6.10
2008,04,07,02,36,6.10
2008,04,07,02,37,6.10
2008,04,07,02,38,6.10
2008,04,07,02,39,6.10
2008,04,07,02,40,6.10
2008,04,07,02,41,6.10
2008,04,07,02,42,6.10
2008,04,07,02,43,6.10
2008,04,07,02,44,6.10
2008,04,07,02,45,6.10
2008,04,07,02,46,6.10
2008,04,07,02,47,6.10
2008,04,07,02,48,6.10
2008,04,07,02,49,6.10
2008,04,07,02,50,6.10
2008,04,07,02,51,6.10
2008,04,07,02,52,6.10
2008,04,07,02,53,6.10
2008,04,07,02,54,6.10
2008,04,07,02,55,6.10
2008,04,07,02,56,6.10
2008,04,07,02,57,6.10
2008,04,07,02,58,6.10
2008,04,07,02,59,6.10
2008,04,07,03,00,6.10
2008,04,07,03,01,6.10
2008,04,07,03,02,6.10
2008,04,07,03,03,6.10
2008,04,07,03,04,6.10
2008,04,07,03,05,6.10
2008,04,07,03,06,6.10
2008,04,07,03,07,6.10
2008,04,07,03,08,6.10
2008,04,07,03,09,6.10
2008,04,07,03,10,6.10
2008,04,07,03,11,6.10
2008,04,07,03,12,6.10
2008,04,07,03,13,6.10
2008,04,07,03,14,6.10
2008,04,07,03,15,6.10
2008,04,07,03,16,6.10
2008,04,07,03,17,6.10
2008,04,07,03,18,6.10
2008,04,07,03,19,6.10
2008,04,07,03,20,6.10
2008,04,07,03,21,6.20
2008,04,07,03,22,6.20
2008,04,07,03,23,6.20
2008,04,07,03,24,6.20
2008,04,07,03,25,6.20
2008,04,07,03,26,6.20
2008,04,07,03,27,6.20
2008,04,07,03,28,6.20
2008,04,07,03,29,6.20
2008,04,07,03,30,6.20
2008,04,07,03,31,6.20
2008,04,07,03,32,6.20
2008,04,07,03,33,6.20
2008,04,07,03,34,6.20
2008,04,07,03,35,6.20
2008,04,07,03,36,6.30
2008,04,07,03,37,6.30
2008,04,07,03,38,6.30
2008,04,07,03,39,6.30
2008,04,07,03,40,6.30
2008,04,07,03,41,6.30
2008,04,07,03,42,6.30
2008,04,07,03,43,6.30
2008,04,07,03,44,6.30
2008,04,07,03,45,6.30
2008,04,07,03,46,6.30
2008,04,07,03,47,6.30
2008,04,07,03,48,6.30
2008,04,07,03,49,6.30
2008,04,07,03,50,6.20
2008,04,07,03,51,6.20
2008,04,07,03,52,6.20
2008,04,07,03,53,6.20
2008,04,07,03,54,6.20
2008,04,07,03,55,6.10
2008,04,07,03,56,6.10
2008,04,07,03,57,6.10
2008,04,07,03,58,6.10
2008,04,07,03,59,6.10
2008,04,07,04,00,6.10
2008,04,07,04,01,6.00
2008,04,07,04,02,6.00
2008,04,07,04,03,6.00
2008,04,07,04,05,6.00
2008,04,07,04,18,5.90
2008,04,07,04,28,5.80
2008,04,07,04,39,5.70
2008,04,07,04,50,5.60
2008,04,07,05,02,5.40
2008,04,07,05,11,5.30
2008,04,07,05,19,5.30
2008,04,07,05,27,5.30
2008,04,07,05,35,5.30
2008,04,07,05,43,5.20
2008,04,07,05,51,5.20
2008,04,07,05,59,5.10
2008,04,07,06,07,5.10
2008,04,07,06,15,5.10
2008,04,07,06,18,5.10
2008,04,07,06,19,5.10
2008,04,07,06,20,5.20
2008,04,07,06,21,5.20
2008,04,07,06,22,5.20
2008,04,07,06,23,5.20
2008,04,07,06,24,5.20
2008,04,07,06,25,5.20
2008,04,07,06,26,5.20
2008,04,07,06,27,5.30
2008,04,07,06,28,5.30
2008,04,07,06,29,5.30
2008,04,07,06,30,5.30
2008,04,07,06,31,5.30
2008,04,07,06,32,5.30
2008,04,07,06,33,5.30
2008,04,07,06,34,5.30
2008,04,07,06,35,5.30
2008,04,07,06,36,5.30
2008,04,07,06,37,5.40
2008,04,07,06,38,5.40
2008,04,07,06,39,5.40
2008,04,07,06,40,5.50
2008,04,07,06,41,5.50
2008,04,07,06,42,5.60
2008,04,07,06,43,5.60
2008,04,07,06,44,5.60
2008,04,07,06,45,5.60
2008,04,07,06,46,5.70
2008,04,07,06,47,5.70
2008,04,07,06,48,5.70
2008,04,07,06,49,5.70
2008,04,07,06,50,5.70
2008,04,07,06,51,5.70
2008,04,07,06,52,5.70
2008,04,07,06,53,5.70
2008,04,07,06,54,5.70
2008,04,07,06,55,5.70
2008,04,07,06,56,5.70
2008,04,07,06,57,5.80
2008,04,07,06,58,5.80
2008,04,07,06,59,5.80
2008,04,07,07,00,5.80
2008,04,07,07,01,5.80
2008,04,07,07,02,5.80
2008,04,07,07,03,5.80
2008,04,07,07,04,5.80
2008,04,07,07,05,5.70
2008,04,07,07,06,5.70
2008,04,07,07,07,5.70
2008,04,07,07,08,5.70
2008,04,07,07,09,5.70
2008,04,07,07,10,5.70
2008,04,07,07,11,5.70
2008,04,07,07,12,5.70
2008,04,07,07,13,5.70
2008,04,07,07,14,5.70
2008,04,07,07,15,5.70
2008,04,07,07,16,5.70
2008,04,07,07,17,5.70
2008,04,07,07,18,5.70
2008,04,07,07,19,5.70
2008,04,07,07,20,5.70
2008,04,07,07,21,5.70
2008,04,07,07,22,5.70
2008,04,07,07,23,5.60
2008,04,07,07,24,5.60
2008,04,07,07,25,5.60
2008,04,07,07,26,5.70
2008,04,07,07,27,5.70
2008,04,07,07,28,5.70
2008,04,07,07,29,5.70
2008,04,07,07,30,5.70
2008,04,07,07,31,5.70
2008,04,07,07,32,5.70
2008,04,07,07,33,5.70
2008,04,07,07,34,5.70
2008,04,07,07,35,5.70
2008,04,07,07,36,5.70
2008,04,07,07,37,5.70
2008,04,07,07,38,5.70
2008,04,07,07,39,5.70
2008,04,07,07,40,5.70
2008,04,07,07,41,5.70
2008,04,07,07,42,5.80
2008,04,07,07,43,5.80
2008,04,07,07,44,5.80
2008,04,07,07,45,5.80
2008,04,07,07,46,5.80
2008,04,07,07,47,5.80
2008,04,07,07,48,5.80
2008,04,07,07,49,5.90
2008,04,07,07,50,5.90
2008,04,07,07,51,5.90
2008,04,07,07,52,5.90
2008,04,07,07,53,5.90
2008,04,07,07,54,6.00
2008,04,07,07,55,6.00
2008,04,07,07,56,6.00
2008,04,07,07,57,6.10
2008,04,07,07,58,6.10
2008,04,07,07,59,6.10
2008,04,07,08,00,6.10
2008,04,07,08,01,6.20
2008,04,07,08,02,6.20
2008,04,07,08,03,6.30
2008,04,07,08,04,6.30
2008,04,07,08,05,6.30
2008,04,07,08,06,6.40
2008,04,07,08,07,6.50
2008,04,07,08,08,6.50
2008,04,07,08,09,6.60
2008,04,07,08,10,6.70
2008,04,07,08,11,6.80
2008,04,07,08,12,6.90
2008,04,07,08,13,7.00
2008,04,07,08,14,7.10
2008,04,07,08,15,7.10
2008,04,07,08,16,7.10
2008,04,07,08,17,7.20
2008,04,07,08,18,7.20
2008,04,07,08,19,7.20
2008,04,07,08,20,7.30
2008,04,07,08,21,7.30
2008,04,07,08,22,7.40
2008,04,07,08,23,7.40
2008,04,07,08,24,7.40
2008,04,07,08,25,7.40
2008,04,07,08,26,7.40
2008,04,07,08,27,7.40
2008,04,07,08,28,7.40
2008,04,07,08,29,7.40
2008,04,07,08,30,7.50
2008,04,07,08,31,7.60
2008,04,07,08,32,7.60
2008,04,07,08,33,7.70
2008,04,07,08,34,7.80
2008,04,07,08,35,7.80
2008,04,07,08,36,7.90
2008,04,07,08,37,8.00
2008,04,07,08,38,8.10
2008,04,07,08,39,8.20
2008,04,07,08,40,8.20
2008,04,07,08,41,8.20
2008,04,07,08,42,8.30
2008,04,07,08,43,8.30
2008,04,07,08,44,8.30
2008,04,07,08,45,8.30
2008,04,07,08,46,8.30
2008,04,07,08,47,8.30
2008,04,07,08,48,8.30
2008,04,07,08,49,8.30
2008,04,07,08,50,8.30
2008,04,07,08,51,8.30
2008,04,07,08,52,8.30
2008,04,07,08,53,8.30
2008,04,07,08,54,8.20
2008,04,07,08,55,8.20
2008,04,07,08,56,8.20
2008,04,07,08,57,8.20
2008,04,07,08,58,8.20
2008,04,07,08,59,8.20
2008,04,07,09,00,8.20
2008,04,07,09,01,8.20
2008,04,07,09,02,8.20
2008,04,07,09,03,8.20
2008,04,07,09,04,8.20
2008,04,07,09,05,8.20
2008,04,07,09,06,8.20
2008,04,07,09,07,8.20
2008,04,07,09,08,8.20
2008,04,07,09,09,8.20
2008,04,07,09,10,8.20
2008,04,07,09,11,8.10
2008,04,07,09,12,8.10
2008,04,07,09,13,8.10
2008,04,07,09,14,8.10
2008,04,07,09,15,8.20
2008,04,07,09,16,8.20
2008,04,07,09,17,8.30
2008,04,07,09,18,8.50
2008,04,07,09,19,8.50
2008,04,07,09,20,8.60
2008,04,07,09,21,8.70
2008,04,07,09,22,8.80
2008,04,07,09,23,8.90
2008,04,07,09,24,8.90
2008,04,07,09,25,9.00
2008,04,07,09,26,9.00
2008,04,07,09,27,9.10
2008,04,07,09,28,9.10
2008,04,07,09,29,9.00
2008,04,07,09,30,9.00
2008,04,07,09,31,9.00
2008,04,07,09,32,9.00
2008,04,07,09,33,9.00
2008,04,07,09,34,9.00
2008,04,07,09,35,9.00
2008,04,07,09,36,9.00
2008,04,07,09,37,9.00
2008,04,07,09,38,9.00
2008,04,07,09,39,9.00
2008,04,07,09,40,9.00
2008,04,07,09,41,9.00
2008,04,07,09,42,9.00
2008,04,07,09,43,8.90
2008,04,07,09,44,9.00
2008,04,07,09,45,9.00
2008,04,07,09,46,9.00
2008,04,07,09,47,8.90
2008,04,07,09,48,8.90
2008,04,07,09,49,8.90
2008,04,07,09,50,8.80
2008,04,07,09,51,8.80
2008,04,07,09,52,8.80
2008,04,07,09,53,8.80
2008,04,07,09,54,8.70
2008,04,07,09,55,8.70
2008,04,07,09,56,8.60
2008,04,07,09,57,8.50
2008,04,07,09,58,8.40
2008,04,07,09,59,8.50
2008,04,07,10,00,8.50
2008,04,07,10,01,8.50
2008,04,07,10,02,8.60
2008,04,07,10,03,8.60
2008,04,07,10,04,8.70
2008,04,07,10,05,8.70
2008,04,07,10,06,8.70
2008,04,07,10,07,8.70
2008,04,07,10,08,8.70
2008,04,07,10,09,8.60
2008,04,07,10,10,8.60
2008,04,07,10,11,8.70
2008,04,07,10,12,8.70
2008,04,07,10,13,8.80
2008,04,07,10,14,8.80
2008,04,07,10,15,8.90
2008,04,07,10,16,8.90
2008,04,07,10,17,8.90
2008,04,07,10,18,8.80
2008,04,07,10,19,8.80
2008,04,07,10,20,8.80
2008,04,07,10,21,8.80
2008,04,07,10,22,8.70
2008,04,07,10,23,8.60
2008,04,07,10,24,8.60
2008,04,07,10,25,8.50
2008,04,07,10,26,8.40
2008,04,07,10,27,8.40
2008,04,07,10,28,8.40
2008,04,07,10,29,8.40
2008,04,07,10,30,8.50
2008,04,07,10,31,8.60
2008,04,07,10,32,8.60
2008,04,07,10,33,8.60
2008,04,07,10,34,8.70
2008,04,07,10,35,8.80
2008,04,07,10,36,8.90
2008,04,07,10,37,9.00
2008,04,07,10,38,9.10
2008,04,07,10,39,9.10
2008,04,07,10,40,9.20
2008,04,07,10,41,9.30
2008,04,07,10,42,9.30
2008,04,07,10,43,9.40
2008,04,07,10,44,9.30
2008,04,07,10,45,9.30
2008,04,07,10,46,9.30
2008,04,07,10,47,9.30
2008,04,07,10,48,9.20
2008,04,07,10,49,9.10
2008,04,07,10,50,9.00
2008,04,07,10,51,9.00
2008,04,07,10,52,8.90
2008,04,07,10,53,8.90
2008,04,07,10,54,8.90
2008,04,07,10,55,8.90
2008,04,07,10,56,8.90
2008,04,07,10,57,9.00
2008,04,07,10,58,9.10
2008,04,07,10,59,9.20
2008,04,07,11,00,9.20
2008,04,07,11,01,9.30
2008,04,07,11,02,9.50
2008,04,07,11,03,9.60
2008,04,07,11,04,9.60
2008,04,07,11,05,9.70
2008,04,07,11,06,9.70
2008,04,07,11,07,9.80
2008,04,07,11,08,9.80
2008,04,07,11,09,9.60
2008,04,07,11,10,9.50
2008,04,07,11,11,9.50
2008,04,07,11,12,9.50
2008,04,07,11,13,9.50
2008,04,07,11,14,9.50
2008,04,07,11,15,9.40
2008,04,07,11,16,9.40
2008,04,07,11,17,9.40
2008,04,07,11,18,9.40
2008,04,07,11,19,9.40
2008,04,07,11,20,9.40
2008,04,07,11,21,9.40
2008,04,07,11,22,9.30
2008,04,07,11,23,9.20
2008,04,07,11,24,9.10
2008,04,07,11,25,9.00
2008,04,07,11,26,8.90
2008,04,07,11,27,8.90
2008,04,07,11,28,8.90
2008,04,07,11,29,8.90
2008,04,07,11,30,8.90
2008,04,07,11,31,8.80
2008,04,07,11,32,8.80
2008,04,07,11,33,8.80
2008,04,07,11,34,8.70
2008,04,07,11,35,8.70
2008,04,07,11,36,8.70
2008,04,07,11,37,8.70
2008,04,07,11,38,8.70
2008,04,07,11,39,8.80
2008,04,07,11,40,8.80
2008,04,07,11,41,8.80
2008,04,07,11,42,8.80
2008,04,07,11,43,8.90
2008,04,07,11,44,8.90
2008,04,07,11,45,8.90
2008,04,07,11,46,8.90
2008,04,07,11,47,8.90
2008,04,07,11,48,8.80
2008,04,07,11,49,8.80
2008,04,07,11,50,8.80
2008,04,07,11,51,8.80
2008,04,07,11,52,8.80
2008,04,07,11,53,8.80
2008,04,07,11,54,8.80
2008,04,07,11,55,8.70
2008,04,07,11,56,8.70
2008,04,07,11,57,8.70
2008,04,07,11,58,8.70
2008,04,07,11,59,8.70
2008,04,07,12,00,8.70
2008,04,07,12,01,8.70
2008,04,07,12,02,8.70
2008,04,07,12,03,8.70
2008,04,07,12,04,8.80
2008,04,07,12,05,8.90
2008,04,07,12,06,9.00
2008,04,07,12,07,9.20
2008,04,07,12,08,9.30
2008,04,07,12,09,9.40
2008,04,07,12,10,9.50
2008,04,07,12,11,9.60
2008,04,07,12,12,9.60
2008,04,07,12,13,9.60
2008,04,07,12,14,9.60
2008,04,07,12,15,9.50
2008,04,07,12,16,9.40
2008,04,07,12,17,9.30
2008,04,07,12,18,9.30
2008,04,07,12,19,9.30
2008,04,07,12,20,9.30
2008,04,07,12,21,9.30
2008,04,07,12,22,9.30
2008,04,07,12,23,9.40
2008,04,07,12,24,9.40
2008,04,07,12,25,9.50
2008,04,07,12,26,9.60
2008,04,07,12,27,9.70
2008,04,07,12,28,9.70
2008,04,07,12,29,9.60
2008,04,07,12,30,9.60
2008,04,07,12,31,9.60
2008,04,07,12,32,9.60
2008,04,07,12,33,9.60
2008,04,07,12,34,9.60
2008,04,07,12,35,9.70
2008,04,07,12,36,9.70
2008,04,07,12,37,9.70
2008,04,07,12,38,9.70
2008,04,07,12,39,9.60
2008,04,07,12,40,9.60
2008,04,07,12,41,9.50
2008,04,07,12,42,9.40
2008,04,07,12,43,9.40
2008,04,07,12,44,9.40
2008,04,07,12,45,9.40
2008,04,07,12,46,9.40
2008,04,07,12,47,9.50
2008,04,07,12,48,9.60
2008,04,07,12,49,9.50
2008,04,07,12,50,9.50
2008,04,07,12,51,9.50
2008,04,07,12,52,9.50
2008,04,07,12,53,9.50
2008,04,07,12,54,9.50
2008,04,07,12,55,9.50
2008,04,07,12,56,9.50
2008,04,07,12,57,9.40
2008,04,07,12,58,9.50
2008,04,07,12,59,9.60
2008,04,07,13,00,9.60
2008,04,07,13,01,9.60
2008,04,07,13,02,9.60
2008,04,07,13,03,9.60
2008,04,07,13,04,9.60
2008,04,07,13,05,9.60
2008,04,07,13,06,9.60
2008,04,07,13,07,9.60
2008,04,07,13,08,9.50
2008,04,07,13,09,9.50
2008,04,07,13,10,9.50
2008,04,07,13,11,9.60
2008,04,07,13,12,9.60
2008,04,07,13,13,9.60
2008,04,07,13,14,9.70
2008,04,07,13,15,9.80
2008,04,07,13,16,9.80
2008,04,07,13,17,9.80
2008,04,07,13,18,9.70
2008,04,07,13,19,9.70
2008,04,07,13,20,9.70
2008,04,07,13,21,9.70
2008,04,07,13,22,9.70
2008,04,07,13,23,9.80
2008,04,07,13,24,9.80
2008,04,07,13,25,9.80
2008,04,07,13,26,9.80
2008,04,07,13,27,9.80
2008,04,07,13,28,9.90
2008,04,07,13,29,9.90
2008,04,07,13,30,10.00
2008,04,07,13,31,10.10
2008,04,07,13,32,10.10
2008,04,07,13,33,10.20
2008,04,07,13,34,10.20
2008,04,07,13,35,10.20
2008,04,07,13,36,10.10
2008,04,07,13,37,10.10
2008,04,07,13,38,10.10
2008,04,07,13,39,9.90
2008,04,07,13,40,9.90
2008,04,07,13,41,9.80
2008,04,07,13,42,9.90
2008,04,07,13,43,9.90
2008,04,07,13,44,10.00
2008,04,07,13,45,10.10
2008,04,07,13,46,10.20
2008,04,07,13,47,10.30
2008,04,07,13,48,10.40
2008,04,07,13,49,10.40
2008,04,07,13,50,10.30
2008,04,07,13,51,10.20
2008,04,07,13,52,10.20
2008,04,07,13,53,10.20
2008,04,07,13,54,10.20
2008,04,07,13,55,10.20
2008,04,07,13,56,10.30
2008,04,07,13,57,10.30
2008,04,07,13,58,10.30
2008,04,07,13,59,10.40
2008,04,07,14,00,10.40
2008,04,07,14,01,10.50
2008,04,07,14,02,10.60
2008,04,07,14,03,10.70
2008,04,07,14,04,10.60
2008,04,07,14,05,10.60
2008,04,07,14,06,10.60
2008,04,07,14,07,10.60
2008,04,07,14,08,10.70
2008,04,07,14,09,10.70
2008,04,07,14,10,10.70
2008,04,07,14,11,10.60
2008,04,07,14,12,10.60
2008,04,07,14,13,10.50
2008,04,07,14,14,10.40
2008,04,07,14,15,10.40
2008,04,07,14,16,10.50
2008,04,07,14,17,10.50
2008,04,07,14,18,10.60
2008,04,07,14,19,10.60
2008,04,07,14,20,10.60
2008,04,07,14,21,10.60
2008,04,07,14,22,10.50
2008,04,07,14,23,10.40
2008,04,07,14,24,10.40
2008,04,07,14,25,10.40
2008,04,07,14,26,10.40
2008,04,07,14,27,10.50
2008,04,07,14,28,10.50
2008,04,07,14,29,10.60
2008,04,07,14,30,10.50
2008,04,07,14,31,10.40
2008,04,07,14,32,10.40
2008,04,07,14,33,10.40
2008,04,07,14,34,10.40
2008,04,07,14,35,10.40
2008,04,07,14,36,10.40
2008,04,07,14,37,10.50
2008,04,07,14,38,10.50
2008,04,07,14,39,10.60
2008,04,07,14,40,10.60
2008,04,07,14,41,10.60
2008,04,07,14,42,10.60
2008,04,07,14,43,10.60
2008,04,07,14,44,10.60
2008,04,07,14,45,10.60
2008,04,07,14,46,10.60
2008,04,07,14,47,10.60
2008,04,07,14,48,10.50
2008,04,07,14,49,10.50
2008,04,07,14,50,10.40
2008,04,07,14,51,10.30
2008,04,07,14,52,10.30
2008,04,07,14,53,10.30
2008,04,07,14,54,10.40
2008,04,07,14,55,10.40
2008,04,07,14,56,10.50
2008,04,07,14,57,10.50
2008,04,07,14,58,10.60
2008,04,07,14,59,10.60
2008,04,07,15,00,10.60
2008,04,07,15,01,10.60
2008,04,07,15,02,10.60
2008,04,07,15,03,10.60
2008,04,07,15,04,10.60
2008,04,07,15,05,10.60
2008,04,07,15,06,10.60
2008,04,07,15,07,10.60
2008,04,07,15,08,10.60
2008,04,07,15,09,10.60
2008,04,07,15,10,10.60
2008,04,07,15,11,10.60
2008,04,07,15,12,10.50
2008,04,07,15,13,10.40
2008,04,07,15,14,10.40
2008,04,07,15,15,10.40
2008,04,07,15,16,10.50
2008,04,07,15,17,10.60
2008,04,07,15,18,10.60
2008,04,07,15,19,10.60
2008,04,07,15,20,10.60
2008,04,07,15,21,10.60
2008,04,07,15,22,10.60
2008,04,07,15,23,10.60
2008,04,07,15,24,10.60
2008,04,07,15,25,10.60
2008,04,07,15,26,10.70
2008,04,07,15,27,10.70
2008,04,07,15,28,10.80
2008,04,07,15,29,10.70
2008,04,07,15,30,10.70
2008,04,07,15,31,10.80
2008,04,07,15,32,10.80
2008,04,07,15,33,10.80
2008,04,07,15,34,10.80
2008,04,07,15,35,10.80
2008,04,07,15,36,10.80
2008,04,07,15,37,10.80
2008,04,07,15,38,10.70
2008,04,07,15,39,10.60
2008,04,07,15,40,10.50
2008,04,07,15,41,10.50
2008,04,07,15,42,10.40
2008,04,07,15,43,10.50
2008,04,07,15,44,10.40
2008,04,07,15,45,10.40
2008,04,07,15,46,10.50
2008,04,07,15,47,10.50
2008,04,07,15,48,10.50
2008,04,07,15,49,10.50
2008,04,07,15,50,10.60
2008,04,07,15,51,10.50
2008,04,07,15,52,10.30
2008,04,07,15,53,10.20
2008,04,07,15,54,10.10
2008,04,07,15,55,10.20
2008,04,07,15,56,10.20
2008,04,07,15,57,10.20
2008,04,07,15,58,10.20
2008,04,07,15,59,10.20
2008,04,07,16,00,10.30
2008,04,07,16,01,10.30
2008,04,07,16,02,10.30
2008,04,07,16,03,10.30
2008,04,07,16,04,10.30
2008,04,07,16,05,10.30
2008,04,07,16,06,10.30
2008,04,07,16,07,10.20
2008,04,07,16,08,10.10
2008,04,07,16,09,10.20
2008,04,07,16,10,10.20
2008,04,07,16,11,10.20
2008,04,07,16,12,10.10
2008,04,07,16,13,10.20
2008,04,07,16,14,10.20
2008,04,07,16,15,10.20
2008,04,07,16,16,10.20
2008,04,07,16,17,10.30
2008,04,07,16,18,10.30
2008,04,07,16,19,10.30
2008,04,07,16,20,10.40
2008,04,07,16,21,10.40
2008,04,07,16,22,10.30
2008,04,07,16,23,10.20
2008,04,07,16,24,10.20
2008,04,07,16,25,10.10
2008,04,07,16,26,10.00
2008,04,07,16,27,9.90
2008,04,07,16,28,9.90
2008,04,07,16,29,9.90
2008,04,07,16,30,9.90
2008,04,07,16,31,9.90
2008,04,07,16,32,9.80
2008,04,07,16,33,9.80
2008,04,07,16,34,9.70
2008,04,07,16,35,9.70
2008,04,07,16,36,9.70
2008,04,07,16,37,9.70
2008,04,07,16,38,9.70
2008,04,07,16,39,9.60
2008,04,07,16,40,9.50
2008,04,07,16,41,9.30
2008,04,07,16,42,9.30
2008,04,07,16,43,9.20
2008,04,07,16,44,9.20
2008,04,07,16,45,9.20
2008,04,07,16,46,9.10
2008,04,07,16,47,9.00
2008,04,07,16,48,8.90
2008,04,07,16,49,8.90
2008,04,07,16,50,8.80
2008,04,07,16,51,8.70
2008,04,07,16,52,8.70
2008,04,07,16,53,8.70
2008,04,07,16,54,8.70
2008,04,07,16,55,8.60
2008,04,07,16,56,8.60
2008,04,07,16,57,8.60
2008,04,07,16,58,8.60
2008,04,07,16,59,8.60
2008,04,07,17,00,8.60
2008,04,07,17,01,8.60
2008,04,07,17,02,8.50
2008,04,07,17,03,8.40
2008,04,07,17,04,8.40
2008,04,07,17,05,8.40
2008,04,07,17,06,8.30
2008,04,07,17,07,8.30
2008,04,07,17,08,8.30
2008,04,07,17,09,8.30
2008,04,07,17,10,8.30
2008,04,07,17,11,8.30
2008,04,07,17,12,8.30
2008,04,07,17,13,8.30
2008,04,07,17,14,8.30
2008,04,07,17,15,8.20
2008,04,07,17,16,8.20
2008,04,07,17,17,8.20
2008,04,07,17,18,8.20
2008,04,07,17,19,8.20
2008,04,07,17,20,8.20
2008,04,07,17,21,8.20
2008,04,07,17,22,8.30
2008,04,07,17,23,8.30
2008,04,07,17,24,8.30
2008,04,07,17,25,8.30
2008,04,07,17,26,8.30
2008,04,07,17,27,8.20
2008,04,07,17,28,8.20
2008,04,07,17,29,8.10
2008,04,07,17,30,8.10
2008,04,07,17,31,8.10
2008,04,07,17,32,8.10
2008,04,07,17,33,8.10
2008,04,07,17,34,8.10
2008,04,07,17,35,8.10
2008,04,07,17,36,8.10
2008,04,07,17,37,8.20
2008,04,07,17,38,8.20
2008,04,07,17,39,8.30
2008,04,07,17,40,8.30
2008,04,07,17,41,8.30
2008,04,07,17,42,8.30
2008,04,07,17,43,8.30
2008,04,07,17,44,8.30
2008,04,07,17,45,8.30
2008,04,07,17,46,8.30
2008,04,07,17,47,8.40
2008,04,07,17,48,8.40
2008,04,07,17,49,8.40
2008,04,07,17,50,8.40
2008,04,07,17,51,8.50
2008,04,07,17,52,8.50
2008,04,07,17,53,8.60
2008,04,07,17,54,8.60
2008,04,07,17,55,8.70
2008,04,07,17,56,8.70
2008,04,07,17,57,8.80
2008,04,07,17,58,8.80
2008,04,07,17,59,8.80
2008,04,07,18,00,8.90
2008,04,07,18,01,8.90
2008,04,07,18,02,9.00
2008,04,07,18,03,9.00
2008,04,07,18,04,9.10
2008,04,07,18,05,9.10
2008,04,07,18,06,9.20
2008,04,07,18,07,9.20
2008,04,07,18,08,9.20
2008,04,07,18,09,9.20
2008,04,07,18,10,9.20
2008,04,07,18,11,9.20
2008,04,07,18,12,9.20
2008,04,07,18,13,9.20
2008,04,07,18,14,9.10
2008,04,07,18,15,9.10
2008,04,07,18,16,9.00
2008,04,07,18,17,9.00
2008,04,07,18,18,8.90
2008,04,07,18,19,8.90
2008,04,07,18,20,8.90
2008,04,07,18,21,8.80
2008,04,07,18,22,8.80
2008,04,07,18,23,8.70
2008,04,07,18,24,8.70
2008,04,07,18,25,8.70
2008,04,07,18,26,8.60
2008,04,07,18,27,8.60
2008,04,07,18,28,8.60
2008,04,07,18,29,8.60
2008,04,07,18,30,8.50
2008,04,07,18,31,8.50
2008,04,07,18,32,8.40
2008,04,07,18,33,8.40
2008,04,07,18,34,8.30
2008,04,07,18,35,8.30
2008,04,07,18,36,8.30
2008,04,07,18,37,8.30
2008,04,07,18,38,8.20
2008,04,07,18,39,8.20
2008,04,07,18,40,8.20
2008,04,07,18,41,8.20
2008,04,07,18,42,8.20
2008,04,07,18,43,8.20
2008,04,07,18,44,8.10
2008,04,07,18,45,8.10
2008,04,07,18,46,8.10
2008,04,07,18,47,8.10
2008,04,07,18,48,8.10
2008,04,07,18,49,8.10
2008,04,07,18,50,8.10
2008,04,07,18,51,8.10
2008,04,07,18,52,8.10
2008,04,07,18,53,8.10
2008,04,07,18,54,8.10
2008,04,07,18,55,8.10
2008,04,07,18,56,8.10
2008,04,07,18,57,8.00
2008,04,07,18,58,8.00
2008,04,07,18,59,7.90
2008,04,07,19,00,7.90
2008,04,07,19,01,7.90
2008,04,07,19,02,7.90
2008,04,07,19,03,7.90
2008,04,07,19,04,7.90
2008,04,07,19,05,7.90
2008,04,07,19,06,7.90
2008,04,07,19,07,7.80
2008,04,07,19,08,7.80
2008,04,07,19,09,7.80
2008,04,07,19,10,7.80
2008,04,07,19,11,7.80
2008,04,07,19,12,7.90
2008,04,07,19,13,7.90
2008,04,07,19,14,7.90
2008,04,07,19,15,7.90
2008,04,07,19,16,7.90
2008,04,07,19,17,7.90
2008,04,07,19,18,7.90
2008,04,07,19,19,7.90
2008,04,07,19,20,7.90
2008,04,07,19,21,7.90
2008,04,07,19,22,7.90
2008,04,07,19,23,7.90
2008,04,07,19,24,7.90
2008,04,07,19,25,7.90
2008,04,07,19,26,7.90
2008,04,07,19,27,7.90
2008,04,07,19,28,7.90
2008,04,07,19,29,7.90
2008,04,07,19,30,7.90
2008,04,07,19,31,7.90
2008,04,07,19,32,7.90
2008,04,07,19,33,7.90
2008,04,07,19,34,7.80
2008,04,07,19,35,7.80
2008,04,07,19,36,7.80
2008,04,07,19,37,7.80
2008,04,07,19,38,7.80
2008,04,07,19,39,7.80
2008,04,07,19,40,7.80
2008,04,07,19,41,7.80
2008,04,07,19,42,7.80
2008,04,07,19,43,7.80
2008,04,07,19,44,7.70
2008,04,07,19,45,7.70
2008,04,07,19,46,7.70
2008,04,07,19,47,7.70
2008,04,07,19,48,7.70
2008,04,07,19,49,7.70
2008,04,07,19,50,7.70
2008,04,07,19,51,7.70
2008,04,07,19,52,7.70
2008,04,07,19,53,7.70
2008,04,07,19,54,7.70
2008,04,07,19,55,7.70
2008,04,07,19,56,7.70
2008,04,07,19,57,7.70